TimeCST,TemperatureF,Dew PointF,Humidity,Sea Level PressureIn,VisibilityMPH,Wind Direction,Wind SpeedMPH,Gust SpeedMPH,PrecipitationIn,Events,Conditions,WindDirDegrees,DateUTC
12:15 AM,37.4,21.2,52,30.34,10.0,NNE,6.9,-,N/A,,Clear,20,2013-01-05 06:15:00
12:35 AM,37.4,21.2,52,30.33,10.0,NNE,8.1,-,N/A,,Clear,20,2013-01-05 06:35:00
12:55 AM,37.4,21.2,52,30.32,10.0,NNE,8.1,-,N/A,,Clear,20,2013-01-05 06:55:00
1:15 AM,37.4,21.2,52,30.32,10.0,NNE,5.8,-,N/A,,Clear,20,2013-01-05 07:15:00
1:35 AM,37.4,21.2,52,30.32,10.0,NNE,8.1,-,N/A,,Clear,20,2013-01-05 07:35:00
1:55 AM,37.4,21.2,52,30.32,10.0,NNE,8.1,-,N/A,,Clear,20,2013-01-05 07:55:00
2:15 AM,37.4,21.2,52,30.31,10.0,North,8.1,-,N/A,,Clear,10,2013-01-05 08:15:00
2:35 AM,37.4,21.2,52,30.31,10.0,North,8.1,-,N/A,,Clear,10,2013-01-05 08:35:00
2:55 AM,35.6,21.2,56,30.31,10.0,NNE,8.1,-,N/A,,Clear,20,2013-01-05 08:55:00
3:15 AM,35.6,21.2,56,30.32,10.0,North,6.9,-,N/A,,Clear,10,2013-01-05 09:15:00
3:35 AM,35.6,21.2,56,30.31,10.0,NNE,8.1,-,N/A,,Clear,20,2013-01-05 09:35:00
3:55 AM,35.6,21.2,56,30.31,10.0,NNE,6.9,-,N/A,,Clear,20,2013-01-05 09:55:00
4:15 AM,35.6,21.2,56,30.32,10.0,North,3.5,-,N/A,,Clear,350,2013-01-05 10:15:00
4:35 AM,35.6,21.2,56,30.33,10.0,North,5.8,-,N/A,,Clear,350,2013-01-05 10:35:00
4:55 AM,33.8,21.2,60,30.33,10.0,NNE,3.5,-,N/A,,Clear,20,2013-01-05 10:55:00
5:15 AM,33.8,21.2,60,30.32,10.0,NNE,4.6,-,N/A,,Clear,20,2013-01-05 11:15:00
5:36 AM,33.8,21.2,60,30.32,10.0,NNE,5.8,-,N/A,,Clear,30,2013-01-05 11:36:00
5:55 AM,33.8,21.2,60,30.32,10.0,NNE,5.8,-,N/A,,Clear,20,2013-01-05 11:55:00
6:15 AM,33.8,21.2,60,30.33,10.0,North,6.9,-,N/A,,Clear,360,2013-01-05 12:15:00
6:35 AM,33.8,21.2,60,30.34,10.0,NNE,4.6,-,N/A,,Clear,30,2013-01-05 12:35:00
6:55 AM,33.8,21.2,60,30.35,10.0,NNE,5.8,-,N/A,,Clear,30,2013-01-05 12:55:00
7:15 AM,33.8,21.2,60,30.35,10.0,NNE,5.8,-,N/A,,Clear,20,2013-01-05 13:15:00
7:35 AM,35.6,21.2,56,30.36,10.0,NE,4.6,-,N/A,,Clear,40,2013-01-05 13:35:00
7:55 AM,37.4,23.0,56,30.36,10.0,NE,5.8,-,N/A,,Clear,50,2013-01-05 13:55:00
8:15 AM,37.4,23.0,56,30.36,10.0,NE,6.9,-,N/A,,Clear,50,2013-01-05 14:15:00
8:35 AM,39.2,23.0,52,30.36,10.0,NE,8.1,-,N/A,,Clear,40,2013-01-05 14:35:00
8:55 AM,41.0,23.0,49,30.36,10.0,ENE,10.4,-,N/A,,Clear,60,2013-01-05 14:55:00
9:15 AM,42.8,23.0,46,30.36,10.0,ENE,8.1,-,N/A,,Clear,60,2013-01-05 15:15:00
9:55 AM,42.8,21.2,42,30.35,10.0,NE,9.2,-,N/A,,Clear,50,2013-01-05 15:55:00
10:15 AM,44.6,21.2,39,30.35,10.0,NE,5.8,-,N/A,,Clear,50,2013-01-05 16:15:00
10:55 AM,46.4,21.2,37,30.35,10.0,NE,3.5,-,N/A,,Clear,40,2013-01-05 16:55:00
11:15 AM,48.2,23.0,37,30.34,10.0,ENE,5.8,-,N/A,,Clear,70,2013-01-05 17:15:00
11:35 AM,48.2,21.2,34,30.33,10.0,Calm,Calm,-,N/A,,Clear,0,2013-01-05 17:35:00
11:55 AM,48.2,24.8,40,30.31,10.0,Calm,Calm,-,N/A,,Clear,0,2013-01-05 17:55:00
12:15 PM,50.0,21.2,32,30.30,10.0,Calm,Calm,-,N/A,,Clear,0,2013-01-05 18:15:00
12:35 PM,50.0,19.4,30,30.28,10.0,Calm,Calm,-,N/A,,Clear,0,2013-01-05 18:35:00
12:55 PM,50.0,19.4,30,30.27,10.0,Calm,Calm,-,N/A,,Clear,0,2013-01-05 18:55:00
1:15 PM,50.0,21.2,32,30.27,10.0,SSW,3.5,-,N/A,,Clear,210,2013-01-05 19:15:00
1:35 PM,51.8,21.2,30,30.26,10.0,Calm,Calm,-,N/A,,Clear,0,2013-01-05 19:35:00
1:55 PM,51.8,21.2,30,30.26,10.0,Calm,Calm,-,N/A,,Clear,0,2013-01-05 19:55:00
2:15 PM,51.8,21.2,30,30.26,10.0,Calm,Calm,-,N/A,,Clear,0,2013-01-05 20:15:00
2:35 PM,51.8,21.2,30,30.26,10.0,Calm,Calm,-,N/A,,Clear,0,2013-01-05 20:35:00
2:55 PM,51.8,21.2,30,30.27,10.0,Calm,Calm,-,N/A,,Scattered Clouds,0,2013-01-05 20:55:00
3:15 PM,51.8,21.2,30,30.27,10.0,Calm,Calm,-,N/A,,Mostly Cloudy,0,2013-01-05 21:15:00
3:35 PM,51.8,21.2,30,30.27,10.0,Calm,Calm,-,N/A,,Overcast,0,2013-01-05 21:35:00
3:55 PM,51.8,24.8,35,30.27,10.0,Calm,Calm,-,N/A,,Overcast,0,2013-01-05 21:55:00
4:15 PM,50.0,24.8,37,30.29,10.0,WSW,4.6,-,N/A,,Overcast,240,2013-01-05 22:15:00
4:55 PM,48.2,24.8,40,30.29,10.0,South,4.6,-,N/A,,Overcast,190,2013-01-05 22:55:00
5:15 PM,48.2,28.4,46,30.29,10.0,SW,3.5,-,N/A,,Overcast,230,2013-01-05 23:15:00
5:35 PM,48.2,24.8,40,30.29,10.0,West,3.5,-,N/A,,Overcast,280,2013-01-05 23:35:00
5:55 PM,48.2,26.6,43,30.30,10.0,WNW,5.8,-,N/A,,Overcast,300,2013-01-05 23:55:00
6:15 PM,48.2,28.4,46,30.30,10.0,WNW,3.5,-,N/A,,Overcast,300,2013-01-06 00:15:00
6:35 PM,48.2,28.4,46,30.29,10.0,NNW,4.6,-,N/A,,Overcast,340,2013-01-06 00:35:00
6:55 PM,48.2,30.2,50,30.29,10.0,North,3.5,-,N/A,,Overcast,350,2013-01-06 00:55:00
7:15 PM,48.2,30.2,50,30.29,10.0,NNW,4.6,-,N/A,,Overcast,340,2013-01-06 01:15:00
7:55 PM,46.4,28.4,50,30.29,10.0,Calm,Calm,-,N/A,,Overcast,0,2013-01-06 01:55:00
8:15 PM,46.4,30.2,53,30.28,10.0,Calm,Calm,-,N/A,,Overcast,0,2013-01-06 02:15:00
8:35 PM,46.4,35.6,66,30.29,10.0,Calm,Calm,-,N/A,,Overcast,0,2013-01-06 02:35:00
8:55 PM,44.6,35.6,71,30.29,10.0,Calm,Calm,-,0.01,,Overcast,0,2013-01-06 02:55:00
9:15 PM,44.6,37.4,76,30.28,10.0,SE,3.5,-,N/A,,Overcast,140,2013-01-06 03:15:00
9:35 PM,44.6,37.4,76,30.27,10.0,Calm,Calm,-,N/A,,Overcast,0,2013-01-06 03:35:00
9:55 PM,44.6,35.6,71,30.24,10.0,SE,6.9,-,N/A,,Overcast,140,2013-01-06 03:55:00
10:15 PM,44.6,35.6,71,30.23,10.0,ESE,5.8,-,N/A,,Overcast,120,2013-01-06 04:15:00
10:35 PM,44.6,35.6,71,30.25,10.0,NW,4.6,-,N/A,,Overcast,320,2013-01-06 04:35:00
10:55 PM,44.6,35.6,71,30.25,10.0,NNW,3.5,-,N/A,,Overcast,330,2013-01-06 04:55:00
11:15 PM,44.6,37.4,76,30.25,10.0,NNW,6.9,-,N/A,,Overcast,340,2013-01-06 05:15:00
11:55 PM,44.6,35.6,71,30.25,10.0,North,4.6,-,N/A,,Overcast,360,2013-01-06 05:55:00